This demonstration page uses our WeatherBlox Daily Observations layout. Learn more.

Left ArrowRight Arrow

36.17497, -115.13722

Hourly Observations for July 19, 2017

Temp ( °F °C ) Dew Point ( °F °C ) Humidity (%) Winds ( mph kmh ) Pressure ( in mb ) Visibility ( mi km ) Precip ( " mm )
12:15 am 00:15 Clear with Thunderstorms 92 33.3 59 15 33 33 ESE 9 15 29.74 1007 10 16 N/A
12:26 am 00:26 Clear 93 33.9 59 15 32 32 ESE 9 15 29.74 1007 10 16 N/A
12:39 am 00:39 Clear with Nearby Thunderstorms 93 33.9 58 14.4 31 31 SE 9 15 29.74 1007 10 16 N/A
12:53 am 00:53 Clear with Nearby Thunderstorms 93 33.9 59 15 32 32 SE 12 19 29.85 1011 10 16 N/A
1:07 am 01:07 Clear 92 33.3 59 15 33 33 SE 10 17 29.74 1007 10 16 N/A
1:53 am 01:53 Clear 92 33.3 59 15 33 33 SE 13 20 29.85 1011 10 16 N/A
2:53 am 02:53 Clear 90 32.2 58 14.4 34 34 ESE 6 9 29.84 1011 10 16 N/A
3:53 am 03:53 Clear 89 31.7 60 15.6 38 38 ESE 9 15 29.85 1011 10 16 N/A
4:53 am 04:53 Clear 89 31.7 61 16.1 39 39 ESE 8 13 29.87 1012 10 16 N/A
5:53 am 05:53 Sunny 88 31.1 62 16.7 42 42 ESE 12 19 29.90 1012 10 16 N/A
6:53 am 06:53 Partly Cloudy 89 31.7 62 16.7 41 41 ESE 12 19 29.94 1014 10 16 N/A
7:53 am 07:53 Mostly Cloudy 83 28.3 66 18.9 57 57 E 21 33 30.01 1016 10 16 N/A
8:18 am 08:18 Partly Cloudy 80 26.7 67 19.4 64 64 SSE 15 24 29.94 1014 10 16 N/A
8:53 am 08:53 Mostly Cloudy 76 24.4 71 21.7 85 85 WSW 5 7 30.06 1018 10 16 0.00 0.00
9:53 am 09:53 Partly Cloudy with Light Rain 78 25.6 68 20 71 71 SW 12 19 30.04 1017 10 16 0.00 0.00
10:53 am 10:53 Mostly Cloudy 78 25.6 70 21.1 76 76 ESE 6 9 30.05 1018 10 16 0.00 0.00
11:53 am 11:53 Sunny 78 25.6 71 21.7 79 79 S 8 13 30.05 1018 10 16 0.00 0.00
12:53 pm 12:53 Sunny 80 26.7 69 20.6 69 69 SE 12 19 30.03 1017 10 16 N/A
1:53 pm 13:53 Sunny 82 27.8 66 18.9 58 58 SE 8 13 30.00 1016 10 16 N/A
2:53 pm 14:53 Sunny 83 28.3 64 17.8 53 53 S 12 19 29.98 1015 10 16 N/A
3:53 pm 15:53 Sunny 83 28.3 66 18.9 57 57 S 7 11 29.96 1015 10 16 N/A
4:53 pm 16:53 Mostly Sunny 84 28.9 64 17.8 51 51 SE 7 11 29.94 1014 10 16 N/A
5:53 pm 17:53 Mostly Sunny 86 30 63 17.2 46 46 ESE 7 11 29.93 1013 10 16 N/A
6:53 pm 18:53 Sunny 86 30 64 17.8 48 48 SE 8 13 29.92 1013 10 16 N/A
7:53 pm 19:53 Sunny 86 30 61 16.1 43 43 SE 5 7 29.93 1013 10 16 N/A
8:53 pm 20:53 Clear 86 30 62 16.7 45 45 E 3 6 29.94 1014 10 16 N/A
9:53 pm 21:53 Clear 85 29.4 61 16.1 45 45 E 3 6 29.96 1014 10 16 N/A
10:53 pm 22:53 Mostly Cloudy 85 29.4 60 15.6 43 43 N N/A 29.95 1014 10 16 N/A
11:53 pm 23:53 Clear 85 29.4 60 15.6 43 43 E 3 6 29.94 1014 10 16 N/A

Powered by AerisWeather